[[{"header":{"parameterUnit":"m.s-1","parameterCategory":1,"la1":30.2991,"la2":30.254,"lo1":-89.0895,"lo2":-89.0444,"dy":0.0017,"dx":0.0017,"nx":28,"ny":28,"refTime":"2024-10-18T21:00:00:Z","depth":0,"parameterNumber":2,"parameterNumberName":"U-component_of_WINDS"},"data":[0,0,0,0,0,0,0,0,0,0,0,0,0,0,0,0,0,0,0,0,0,0,0,0,0,0,0,0,0,0,0,0,0,0,0,0,0,0,0,0,0,0,0,0,0,0,0,0,0,0,0,0,0,0,0,0,0,0,-4.5501,-4.5501,0,-4.5497,-4.5497,-4.5497,-4.5362,-4.5358,-4.5355,-4.5351,-4.5349,-4.5352,-4.5355,0,0,0,0,0,0,0,0,0,0,0,0,0,-4.5397,-4.54,-4.5501,-4.5501,-4.5501,-4.5497,-4.5497,-4.5497,-4.5362,-4.5358,-4.5354,-4.535,-4.5348,-4.5352,-4.5356,0,0,0,0,0,0,0,0,0,0,0,0,0,-4.5423,-4.5401,-4.5501,-4.5434,-4.5428,-4.5497,-4.5497,-4.5497,-4.5363,-4.5358,-4.5353,-4.5348,-4.5347,-4.5351,-4.5356,-4.5491,0,0,-4.5371,-4.5373,0,0,0,0,0,0,0,0,-4.5421,-4.5427,-4.5444,-4.5438,-4.5432,-4.5424,-4.5459,-4.5495,-4.5364,-4.5388,-4.5351,-4.5345,-4.5379,-4.538,-4.5391,-4.5491,-4.5491,-4.5371,-4.5374,-4.5376,-4.5378,0,0,0,0,0,0,0,-4.542,-4.5426,-4.55,-4.5444,-4.5437,-4.5405,-4.5402,-4.5465,-4.5413,-4.5385,-4.5375,-4.5377,-4.5374,-4.5387,-4.539,-4.549,-4.5371,-4.5375,-4.5378,-4.538,-4.5703,-4.5708,0,0,0,0,0,0,-4.5427,-4.5426,-4.55,-4.5499,-4.5413,-4.5411,-4.5408,-4.5432,-4.5412,-4.5403,-4.5381,-4.537,-4.5381,-4.5385,-4.539,-4.5548,-4.5376,-4.5381,-4.5383,-4.5697,-4.5704,-4.571,0,0,0,0,0,0,-4.5425,-4.5435,-4.55,-4.546,-4.5466,-4.5418,-4.5446,-4.5435,-4.5447,-4.5408,-4.5399,-4.5403,-4.5377,-4.5383,-4.5467,-4.5546,-4.5383,-4.5387,-4.569,-4.5699,-4.5707,-4.5864,0,0,0,0,0,0,-4.5423,-4.5435,-4.5485,-4.5462,-4.5468,-4.5577,-4.5451,-4.5438,-4.5455,-4.5441,-4.5427,-4.5419,-4.5374,-4.5461,-4.5472,-4.5549,-4.5391,-4.5683,-4.5694,-4.5704,-4.5852,-4.5877,-4.5899,0,0,0,0,0,-4.542,-4.5529,-4.5488,-4.5498,-4.5529,-4.5582,-4.5585,-4.553,-4.5462,-4.5513,-4.5488,-4.542,-4.5535,-4.547,-4.5482,-4.5562,-4.5678,-4.5691,-4.5704,-4.5841,-4.5872,-4.5898,0,0,0,0,0,0,-4.5563,-4.5525,-4.5479,-4.5584,-4.5587,-4.5559,-4.562,-4.5564,-4.5587,-4.5573,-4.5503,-4.5501,-4.5597,-4.5587,-4.5516,-4.5692,-4.5595,-4.561,-4.5695,-4.5724,-4.5747,-4.5748,-4.5395,0,0,0,0,0,-4.5607,-4.5652,-4.5616,-4.5713,-4.5716,-4.5669,-4.5689,-4.5646,-4.5647,-4.5648,-4.5629,-4.5633,-4.567,-4.5696,-4.5728,-4.5849,-4.5845,-4.591,-4.5933,-4.5953,-4.5968,-4.6034,-4.6063,-4.5752,-4.5752,-4.5752,0,0,-4.5698,-4.5683,-4.5715,-4.5741,-4.5738,-4.5788,-4.5671,-4.5727,-4.5764,-4.5656,-4.5735,-4.5722,-4.5722,-4.5826,-4.5871,-4.5821,-4.6053,-4.5969,-4.5985,-4.5989,-4.605,-4.608,-4.6106,-4.5761,-4.5759,-4.5758,0,0,-4.589,-4.5882,-4.5962,-4.5962,-4.596,-4.5927,-4.5947,-4.5927,-4.5915,-4.5992,-4.5914,-4.5956,-4.6021,-4.6025,-4.6036,-4.6231,-4.617,-4.6243,-4.6366,-4.6431,-4.6456,-4.6477,-4.655,-4.6576,-4.6258,-4.6258,-4.6259,0,-4.6004,-4.6074,-4.6011,-4.6074,-4.6089,-4.5993,-4.6075,-4.6078,-4.6087,-4.61,-4.6043,-4.6124,-4.6117,-4.6222,-4.627,-4.6281,-4.6303,-4.6245,-4.6457,-4.6478,-4.6497,-4.6565,-4.6592,-4.6268,-4.6266,-4.6266,-4.6265,0,-4.6216,-4.6266,-4.6331,-4.6342,-4.6364,-4.6436,-4.6385,-4.6415,-4.6371,-4.6345,-4.6427,-4.6415,-4.6444,-4.6465,-4.6422,-4.6565,-4.6535,-4.6469,-4.637,-4.6537,-4.66,-4.6625,-4.6281,-4.6277,-4.6275,-4.6272,0,0,-4.6498,-4.6474,-4.6499,-4.6504,-4.6494,-4.6533,-4.6601,-4.6629,-4.6657,-4.6666,-4.6724,-4.6781,-4.6721,-4.6733,-4.669,-4.6747,-4.6905,-4.6674,-4.6673,-4.672,-4.7065,-4.7117,-4.7148,-4.6864,-4.6869,-4.6872,-4.7066,0,-4.6686,-4.6801,-4.6747,-4.6869,-4.6916,-4.6826,-4.6886,-4.6888,-4.6867,-4.6904,-4.6879,-4.6923,-4.6838,-4.6846,-4.6898,-4.6875,-4.6974,-4.686,-4.6919,-4.6922,-4.6924,-4.718,-4.7234,-4.7417,-4.709,-4.7094,-4.7097,0,-4.692,-4.6939,-4.7066,-4.705,-4.7067,-4.7122,-4.7145,-4.7181,-4.7182,-4.7162,-4.7177,-4.7121,-4.7189,-4.7089,-4.7183,-4.7107,-4.7127,-4.712,-4.7126,-4.7131,-4.7021,-4.7194,-4.7474,-4.7503,-4.7135,-4.7132,-4.7129,0,-4.7116,-4.7174,-4.7258,-4.7264,-4.7247,-4.7288,-4.7283,-4.7278,-4.7299,-4.7319,-4.7332,-4.736,-4.7376,-4.7399,-4.7353,-4.7284,-4.7455,-4.735,-4.7442,-4.7444,-4.7484,-4.7482,-4.7773,-4.7494,-4.7493,-4.7493,-4.7492,0,-4.7332,-4.7414,-4.7346,-4.7398,-4.7488,-4.7425,-4.7516,-4.7501,-4.7498,-4.7547,-4.7471,-4.7519,-4.7453,-4.7495,-4.7459,-4.7545,-4.7551,-4.7539,-4.7529,-4.7547,-4.7549,-4.7561,-4.7549,-4.75,-4.7498,-4.7497,-4.7496,0,-4.7568,-4.7525,-4.7611,-4.7588,-4.7584,-4.7651,-4.7632,-4.768,-4.7653,-4.7716,-4.7727,-4.7685,-4.7731,-4.7686,-4.7729,-4.7705,-4.782,-4.779,-4.782,-4.7812,-4.7907,-4.79,-4.8218,-4.8258,-4.7951,-4.7954,-4.7957,0,-4.7709,-4.777,-4.7754,-4.7781,-4.7781,-4.7825,-4.7846,-4.7787,-4.7812,-4.7819,-4.7867,-4.7906,-4.7934,-4.8011,-4.7986,-4.8019,-4.7991,-4.81,-4.7995,-4.8013,-4.7995,-4.7993,-4.8,-4.8122,-4.8126,-4.8128,-4.8131,0,-4.7967,-4.7943,-4.7976,-4.8003,-4.803,-4.8048,-4.806,-4.8087,-4.8026,-4.8059,-4.8105,-4.8127,-4.8171,-4.8211,-4.8237,-4.8232,-4.8174,-4.8164,-4.8187,-4.8208,-4.8223,-4.8219,-4.788,-4.8157,-4.8155,-4.8153,-4.8151,-4.815,-4.8161,-4.8212,-4.8209,-4.8249,-4.8252,-4.8266,-4.831,-4.8289,-4.8325,-4.8357,-4.832,-4.8376,-4.8377,-4.8405,-4.8409,-4.8453,-4.8407,-4.8441,-4.8449,-4.8459,-4.8475,-4.8215,-4.8457,-4.8456,-4.8456,-4.8455,-4.8454,0,-4.8416,-4.841,-4.8447,-4.8467,-4.85,-4.8439,-4.845,-4.8482,-4.8532,-4.8538,-4.8567,-4.8621,-4.866,-4.8638,-4.8672,-4.8712,-4.8686,-4.8724,-4.8721,-4.8722,-4.8512,-4.849,-4.8745,-4.8744,-4.8744,-4.8744,-4.8744,-4.8744,-4.8553,-4.8637,-4.8613,-4.8698,-4.8691,-4.8746,-4.8758,-4.8771,-4.8775,-4.8838,-4.8871,-4.8855,-4.8851,-4.8884,-4.8919,-4.8911,-4.8929,-4.8977,-4.896,-4.8765,-4.8736,-4.8709,-4.8688,-4.898,-4.8981,-4.9166,-4.9168,-4.9169]},{"header":{"parameterUnit":"m.s-1","parameterCategory":1,"la1":30.2991,"la2":30.254,"lo1":-89.0895,"lo2":-89.0444,"dy":0.0017,"dx":0.0017,"nx":28,"ny":28,"refTime":"2024-10-18T21:00:00:Z","depth":0,"parameterNumber":3,"parameterNumberName":"V-component_of_WINDS"},"data":[0,0,0,0,0,0,0,0,0,0,0,0,0,0,0,0,0,0,0,0,0,0,0,0,0,0,0,0,0,0,0,0,0,0,0,0,0,0,0,0,0,0,0,0,0,0,0,0,0,0,0,0,0,0,0,0,0,0,-0.8381,-0.8381,0,-0.8387,-0.8387,-0.8387,-0.836,-0.8359,-0.8358,-0.8358,-0.8366,-0.8367,-0.8368,0,0,0,0,0,0,0,0,0,0,0,0,0,-0.835,-0.835,-0.8381,-0.8381,-0.8382,-0.8387,-0.8387,-0.8387,-0.836,-0.8359,-0.8358,-0.8357,-0.8366,-0.8367,-0.8368,0,0,0,0,0,0,0,0,0,0,0,0,0,-0.836,-0.8351,-0.8381,-0.8369,-0.8368,-0.8387,-0.8387,-0.8387,-0.836,-0.8359,-0.8358,-0.8357,-0.8366,-0.8367,-0.8368,-0.8401,0,0,-0.8373,-0.8374,0,0,0,0,0,0,0,0,-0.836,-0.8361,-0.837,-0.837,-0.8368,-0.8372,-0.8379,-0.8392,-0.8361,-0.8363,-0.8358,-0.8356,-0.8369,-0.837,-0.8374,-0.8402,-0.8402,-0.8373,-0.8374,-0.8375,-0.8375,0,0,0,0,0,0,0,-0.8359,-0.8361,-0.8384,-0.8371,-0.8369,-0.8363,-0.8364,-0.8381,-0.8373,-0.8363,-0.8361,-0.8362,-0.8368,-0.8373,-0.8374,-0.8402,-0.8373,-0.8374,-0.8375,-0.8376,-0.8459,-0.846,0,0,0,0,0,0,-0.836,-0.8361,-0.8384,-0.8384,-0.8361,-0.8365,-0.8365,-0.8372,-0.8373,-0.8372,-0.8363,-0.836,-0.8371,-0.8372,-0.8374,-0.8414,-0.8375,-0.8376,-0.8377,-0.8457,-0.8459,-0.846,0,0,0,0,0,0,-0.8359,-0.8362,-0.8383,-0.8372,-0.8374,-0.8367,-0.8374,-0.8373,-0.8377,-0.8373,-0.8371,-0.8369,-0.837,-0.8372,-0.8395,-0.8414,-0.8377,-0.8378,-0.8456,-0.8458,-0.846,-0.8494,0,0,0,0,0,0,-0.8358,-0.8362,-0.8374,-0.8372,-0.8375,-0.8403,-0.8376,-0.8374,-0.8379,-0.8376,-0.8378,-0.8377,-0.8369,-0.8393,-0.8396,-0.8416,-0.8379,-0.8454,-0.8457,-0.8459,-0.8491,-0.8497,-0.8502,0,0,0,0,0,-0.8357,-0.8383,-0.8374,-0.8377,-0.8389,-0.8404,-0.8406,-0.8396,-0.8381,-0.8393,-0.839,-0.8377,-0.8411,-0.8395,-0.8399,-0.8419,-0.8453,-0.8456,-0.8459,-0.8489,-0.8496,-0.8502,0,0,0,0,0,0,-0.8388,-0.8383,-0.8373,-0.8399,-0.8402,-0.84,-0.8415,-0.8403,-0.8412,-0.8409,-0.8396,-0.8397,-0.8422,-0.8422,-0.8405,-0.8452,-0.8429,-0.8433,-0.8451,-0.8458,-0.8463,-0.8463,-0.838,0,0,0,0,0,-0.8398,-0.841,-0.8405,-0.8429,-0.8431,-0.8423,-0.8429,-0.8421,-0.8424,-0.8425,-0.8424,-0.8429,-0.844,-0.8449,-0.8459,-0.849,-0.8491,-0.8506,-0.8511,-0.8515,-0.852,-0.8538,-0.8545,-0.847,-0.847,-0.847,0,0,-0.8419,-0.8417,-0.8426,-0.8435,-0.8436,-0.845,-0.8424,-0.8439,-0.845,-0.8428,-0.845,-0.8449,-0.8453,-0.848,-0.8492,-0.8481,-0.854,-0.8519,-0.8523,-0.8525,-0.8542,-0.8549,-0.8555,-0.8472,-0.8472,-0.8472,0,0,-0.8464,-0.8463,-0.8484,-0.8486,-0.8488,-0.8482,-0.8487,-0.8486,-0.8485,-0.8506,-0.849,-0.8502,-0.8522,-0.8527,-0.8531,-0.8578,-0.8566,-0.8581,-0.861,-0.8628,-0.8634,-0.8639,-0.8658,-0.8664,-0.8585,-0.8585,-0.8585,0,-0.849,-0.851,-0.8496,-0.8513,-0.8518,-0.8497,-0.8519,-0.8521,-0.8527,-0.8532,-0.8519,-0.8544,-0.8545,-0.8574,-0.8585,-0.8589,-0.8596,-0.8582,-0.8634,-0.8639,-0.8644,-0.8661,-0.8668,-0.8587,-0.8587,-0.8587,-0.8586,0,-0.8542,-0.8556,-0.8572,-0.8578,-0.8585,-0.8604,-0.8594,-0.8603,-0.8593,-0.859,-0.8612,-0.8612,-0.8623,-0.8629,-0.862,-0.8657,-0.865,-0.8636,-0.8614,-0.8653,-0.867,-0.8676,-0.859,-0.8589,-0.8589,-0.8588,0,0,-0.8609,-0.8607,-0.8613,-0.8616,-0.8617,-0.8628,-0.8646,-0.8655,-0.8664,-0.8668,-0.8685,-0.8702,-0.8688,-0.8694,-0.8685,-0.87,-0.874,-0.8684,-0.8684,-0.8696,-0.8782,-0.8795,-0.8803,-0.8731,-0.8732,-0.8733,-0.8783,0,-0.8655,-0.8686,-0.8675,-0.8707,-0.872,-0.87,-0.8716,-0.8719,-0.8716,-0.8727,-0.8723,-0.8737,-0.8717,-0.872,-0.8734,-0.8732,-0.8757,-0.8728,-0.8748,-0.8749,-0.875,-0.8811,-0.8825,-0.8872,-0.8789,-0.879,-0.8791,0,-0.8714,-0.872,-0.8754,-0.8753,-0.8758,-0.8773,-0.8781,-0.8792,-0.8795,-0.8791,-0.8797,-0.8785,-0.8804,-0.878,-0.8807,-0.8787,-0.8795,-0.8795,-0.8796,-0.88,-0.8774,-0.8819,-0.8886,-0.8895,-0.88,-0.8799,-0.8799,0,-0.8762,-0.8779,-0.8802,-0.8804,-0.8803,-0.8814,-0.8814,-0.8816,-0.8823,-0.883,-0.8835,-0.8844,-0.885,-0.8858,-0.885,-0.8833,-0.8879,-0.8854,-0.8878,-0.8879,-0.8891,-0.8891,-0.8963,-0.8892,-0.8891,-0.8891,-0.8891,0,-0.8817,-0.8839,-0.8824,-0.8838,-0.8862,-0.8848,-0.8873,-0.8871,-0.8872,-0.8886,-0.8869,-0.8883,-0.887,-0.8883,-0.8876,-0.8901,-0.8903,-0.8902,-0.8901,-0.8905,-0.8906,-0.8912,-0.8909,-0.8893,-0.8893,-0.8892,-0.8892,0,-0.8876,-0.8866,-0.889,-0.8887,-0.8886,-0.8905,-0.8902,-0.8916,-0.891,-0.8929,-0.8932,-0.8925,-0.8939,-0.8931,-0.8945,-0.8941,-0.8974,-0.8966,-0.8973,-0.8972,-0.8998,-0.8997,-0.9079,-0.909,-0.9008,-0.9009,-0.901,0,-0.8913,-0.8929,-0.8927,-0.8935,-0.8936,-0.8949,-0.8956,-0.8942,-0.8951,-0.8955,-0.8968,-0.8981,-0.8991,-0.9015,-0.9012,-0.9023,-0.9018,-0.9045,-0.9019,-0.9024,-0.9021,-0.9021,-0.9024,-0.9052,-0.9053,-0.9053,-0.9054,0,-0.8979,-0.8974,-0.8984,-0.8992,-0.9001,-0.9007,-0.9012,-0.902,-0.9006,-0.9016,-0.903,-0.9038,-0.9053,-0.9066,-0.9076,-0.9077,-0.9065,-0.9062,-0.9069,-0.9075,-0.9079,-0.908,-0.899,-0.9061,-0.906,-0.906,-0.9059,-0.9059,-0.903,-0.9044,-0.9045,-0.9057,-0.9059,-0.9064,-0.9077,-0.9073,-0.9085,-0.9095,-0.9087,-0.9104,-0.9107,-0.9119,-0.9121,-0.9136,-0.9125,-0.9134,-0.9137,-0.914,-0.9145,-0.9074,-0.9137,-0.9137,-0.9137,-0.9136,-0.9136,0,-0.9098,-0.9098,-0.9108,-0.9116,-0.9126,-0.911,-0.9115,-0.9125,-0.914,-0.9143,-0.9153,-0.917,-0.9183,-0.918,-0.9192,-0.9204,-0.9198,-0.9208,-0.9208,-0.9209,-0.9152,-0.9147,-0.9212,-0.9212,-0.9212,-0.9212,-0.9212,-0.9212,-0.9135,-0.9159,-0.9153,-0.9178,-0.9177,-0.9194,-0.9198,-0.9203,-0.9206,-0.9225,-0.9235,-0.9233,-0.9234,-0.9246,-0.9257,-0.9256,-0.9263,-0.9275,-0.9272,-0.922,-0.9213,-0.9206,-0.92,-0.9276,-0.9276,-0.9327,-0.9328,-0.9328]}]]